Regional Weather Roundup
Issued by NWS Portland, ME

Home | Current Version | Previous Version | Text Only | Print | Product List | Glossary On
Versions: 1 2 3 4 5 6 7 8 9 10 11 12 13 14 15 16 17 18 19 20 21 22 23 24 25 26 27 28 29 30 31 32 33 34 35 36 37 38 39 40 41 42 43 44 45 46 47 48 49 50
000
ASUS41 KGYX 281510
RWRGYX
WEATHER ROUNDUP FOR MAINE AND NEW HAMPSHIRE
NATIONAL WEATHER SERVICE GRAY ME
1100 AM EDT TUE MAR 28 2017

MEZ002-005-006-010-012-015-018-020-021-024-026-027-029-281600-
MAINE

CITY           SKY/WX    TMP DP  RH WIND       PRES   REMARKS
PORTLAND       CLOUDY    35  31  85 CALM      30.07S
SANFORD        CLOUDY    36  33  89 CALM      30.05S
BAR HARBOR     CLOUDY    34  31  88 E8        30.05F
WISCASSET      CLOUDY    36  34  92 CALM      30.07S
ROCKLAND       CLOUDY    34  32  92 SE5       30.07R
FRYEBURG       CLOUDY    35  32  88 E3        30.03F
LEWISTONAUBURN CLOUDY    37  33  85 CALM      30.05S
AUGUSTA        CLOUDY    32  29  88 CALM      30.05R
WATERVILLE     CLOUDY    33  31  92 CALM      30.02R
BANGOR         CLOUDY    33  31  92 E5        30.05S
GREENVILLE       N/A     27  27 100 VRB5      29.95S
MILLINOCKET    CLOUDY    29  29 100 E3        30.05S
HOULTON        FRZ RAIN  29  26  89 SE7       30.03F FOG
PRESQUE ISLE   CLOUDY    30  25  81 SE6       30.05S
FRENCHVILLE    CLOUDY    26  22  84 SE10      30.00F WCI  16
CARIBOU        CLOUDY    28  23  81 SE7       30.03S
$$

NHZ002-005-008-009-011-012-014-281600-
NEW HAMPSHIRE

CITY           SKY/WX    TMP DP  RH WIND       PRES   REMARKS
PORTSMOUTH     CLOUDY    37  33  88 CALM      30.04S
ROCHESTER      CLOUDY    36  31  82 E3        30.03R
NASHUA         CLOUDY    37  35  92 SE3       30.04F
MANCHESTER     CLOUDY    37  31  78 SE5       30.02F
CONCORD        CLOUDY    37  33  85 SE3       30.03S
LACONIA        LGT RAIN  35  33  92 NE3       30.02F
PLYMOUTH       LGT RAIN  35  34  96 CALM      30.02R
BERLIN         CLOUDY    35  30  82 CALM      29.96S
WHITEFIELD     CLOUDY    38  32  79 CALM      29.95R
JAFFREY        CLOUDY    37  35  92 CALM      29.99S
KEENE          CLOUDY    41  36  82 NE5       30.00F
LEBANON        CLOUDY    38  35  89 NE6       29.98R
MT WASHINGTON  FOG       36  36 100 W31         N/A  VSB 0
$$

VTZ005-007-008-281600-
VERMONT

CITY           SKY/WX    TMP DP  RH WIND       PRES   REMARKS
ST JOHNSBURY     N/A     37  36  96 MISG      29.94F
BURLINGTON     CLOUDY    47  43  86 S8        29.90S
$$

MAZ007-012-024-CTZ003-RIZ002-NYZ038-NYZ072-281600-
SOUTHERN NEW ENGLAND AND NY

CITY           SKY/WX    TMP DP  RH WIND       PRES   REMARKS
BOSTON         CLOUDY    39  37  92 E6        30.04F
WORCESTER      FOG       36  35  96 E3        29.99S VSB 1/4
NANTUCKET      CLOUDY    41  40  96 NE8       30.03R FOG
PROVIDENCE     CLOUDY    41  38  89 E7        30.02F
HARTFORD       CLOUDY    42  40  92 E3        30.00S FOG
ALBANY         CLOUDY    49  42  77 S9        29.95R
NEW YORK CITY  CLOUDY    43  40  89 NE5       29.99R FOG
$$

ANZ081-ANZ082-ANZ150-NHZ014-MEZ023>029-281600-
COASTAL MARINE OBSERVATIONS

STATION/POSITION TIME  TEMP    WIND        PRES    WAVE
                       AIR SEA DIR/SP/G            HT/PER
                 (UTC) (F)     (DEG/KT/KT) (MB)    (FT/S)
MOUNT DESERT ROC 1500   35                 1017.0F
MATINICUS ROCK   1400   35      60/ 16/ 17 1016.4R
ISLE OF SHOALS   1400   36      50/  8/  9 1017.0F
JEFFREYS LEDGE   1406      41                N/A     5/ 7
CASHES LEDGE BUO 1450   39 40              1017.2R   5/ 7
GEORGES BANK BUO 1450   39 40              1015.4R   4/ 7
$$

.............KEY..............
   WCI - WIND CHILL
   TC  - TEMPERATURE IN CELSIUS
   VSB - VISIBILITY IN MILES
   HX  - HEAT INDEX
   FAIR- INDICATES FEW OR NO CLOUDS BELOW 12,000 FT, WITH NO
         SIGNIFICANT WEATHER AND/OR OBSTRUCTIONS TO VISIBILITY.






USA.gov is the U.S. government's official web portal to all federal, state and local government web resources and services.